Regional Weather Roundup
Issued by NWS Cleveland, OH

Home | Current Version | Previous Version | Graphics & Text | Print | Product List | Glossary Off
Versions: 1 2 3 4 5 6 7 8 9 10 11 12 13 14 15 16 17 18 19 20 21 22 23 24 25 26 27 28 29 30 31 32 33 34 35 36 37 38 39 40 41 42 43 44 45 46 47 48 49 50

000
ASUS41 KCLE 250802
RWRCLE
OHIO REGIONAL WEATHER ROUNDUP
NATIONAL WEATHER SERVICE CLEVELAND, OH
400 AM EDT WED MAY 25 2016

NOTE: "FAIR" INDICATES FEW OR NO CLOUDS BELOW 12,000 FEET WITH NO
SIGNIFICANT WEATHER AND/OR OBSTRUCTIONS TO VISIBILITY.

OHZ001>008-015>018-024>027-034-035-043-044-250900-
   NORTHWEST OHIO

CITY           SKY/WX    TMP DP  RH WIND       PRES   REMARKS
DEFIANCE       CLOUDY    60  48  64 CALM      30.05S
FINDLAY        CLEAR     61  46  57 S7        30.06R
TOLEDO EXPRESS CLEAR     62  45  53 SW5       30.05R
TOLEDO EXEC    CLEAR     61  47  59 SW6       30.06R
LIMA           CLEAR     62  48  60 S8        30.08R
$$

OHZ009>014-019>023-028>033-038-089-250900-
   NORTHEAST OHIO

CITY           SKY/WX    TMP DP  RH WIND       PRES   REMARKS
CLE-HOPKINS    MOCLDY    61  47  59 SW5       30.09R
CLE-LAKEFRONT  CLEAR     69  45  41 S12       30.05R
CUY CO. ARPT   NOT AVBL
LORAIN-ELYRIA  CLEAR     57  45  64 SW5       30.08R
ASHTABULA      CLEAR     56  47  71 CALM      30.07S
AKRON-CANTON   PTCLDY    57  49  74 S6        30.10S
WOOSTER        CLEAR     56  49  77 CALM      30.11R
MANSFIELD      CLEAR     58  46  64 S6        30.10S
YOUNGSTOWN     MOCLDY    60  49  66 S6        30.09S
$$

OHZ042-051>053-060>062-070>072-077>081-250900-
  SOUTHWEST OHIO

CITY           SKY/WX    TMP DP  RH WIND       PRES   REMARKS
CINC-COVINGTON MOCLDY    62  50  64 S6        30.11R
CINC-LUNKEN    PTCLDY    55  55 100 CALM      30.11R
HAMILTON       CLEAR     56  53  90 CALM      30.11R
DAYTON         PTCLDY    65  47  52 S7        30.11R
WRIGHT-PAT AFB NOT AVBL
DAYTON GENERAL CLEAR     60  47  61 S6        30.10R
WILMINGTON     PTCLDY    60  49  66 CALM      30.12R
$$

OHZ036-037-039>041-045>050-054>059-063>069-073>076-082>088-250900-
  CENTRAL AND SOUTHEAST OHIO

CITY           SKY/WX    TMP DP  RH WIND       PRES   REMARKS
COLUMBUS       CLEAR     56  52  86 CALM      30.10S
OSU AIRPORT    NOT AVBL
BOLTON FIELD   NOT AVBL
RICKENBACK AFB NOT AVBL
NEWARK         CLEAR     52  49  89 CALM      30.11S
MARION         CLEAR     56  47  71 S5        30.10R
LANCASTER      CLEAR     51  49  92 CALM      30.11S
ZANESVILLE     CLEAR     55  51  86 CALM      30.12S
NEW PHILLY     CLEAR     55  51  86 CALM      30.12R
$$




USA.gov is the U.S. government's official web portal to all federal, state and local government web resources and services.